Weather History for KADW - July, 2013

Change the Weather History Date:

Wednesday, July 10, 2013

  Actual Average Record
Temperature  
Mean Temperature 81 °F -  
Max Temperature 86 °F 83 °F 96 °F (2007)
Min Temperature 73 °F 63 °F 64 °F (1996)
Cooling Degree Days 16    
Growing Degree Days 31 (Base 50)    
Moisture  
Dew Point 72 °F    
Average Humidity 80    
Maximum Humidity 93    
Minimum Humidity 52    
Precipitation  
Precipitation 0.03 in - - ()
Sea Level Pressure  
Sea Level Pressure 29.96 in    
Wind  
Wind Speed 10 mph (SSW)    
Max Wind Speed 23 mph    
Max Gust Speed 37 mph    
Visibility 10 miles    
Events Rain , Thunderstorm    
Averages and records for this station are not official NWS values.
T = Trace of Precipitation, MM = Missing Value Source: NWS Daily Summary

Daily Weather History Graph

Daily Weather History Graph

Search for Another Location

Airport or City:

Trip Planner

Search our weather history database for the weather conditions in past years. The results will help you decide how hot, cold, wet, or windy it might be!

Date:

Astronomy

Jul. 10, 2013 Rise Set
Actual Time 5:51 AM EDT 8:34 PM EDT
Civil Twilight 5:19 AM EDT 9:05 PM EDT
Nautical Twilight 4:40 AM EDT 9:44 PM EDT
Astronomical Twilight 3:56 AM EDT 10:28 PM EDT
Moon 8:08 AM EDT (7/10) 9:45 PM EDT (7/10)
Length of Visible Light 15h 45m
Length of Day
14h 42m
Waxing Crescent, 5% of the Moon is Illuminated
Jul 10
Waxing Crescent
Jul 15
First Quarter
Jul 22
Full
Jul 29
Last Quarter
Aug 6
New

Hourly Weather History & Observations

Time (EDT) Temp. Heat Index Dew Point Humidity Pressure Visibility Wind Dir Wind Speed Gust Speed Precip Events Conditions
12:58 AM 77.4 °F - 72.9 °F 86% 30.04 in 10.0 mi South 9.2 mph - N/A   Mostly Cloudy
1:58 AM 77.7 °F - 71.6 °F 81% 30.01 in 10.0 mi SSW 10.4 mph - N/A   Clear
2:58 AM 77.2 °F - 72.5 °F 85% 30.01 in 10.0 mi SSW 8.1 mph - N/A   Clear
3:58 AM 76.3 °F - 73.2 °F 90% 30.01 in 10.0 mi SSW 8.1 mph - N/A   Mostly Cloudy
4:58 AM 75.9 °F - 73.4 °F 92% 30.01 in 10.0 mi SSW 8.1 mph - N/A   Clear
5:58 AM 75.6 °F - 73.4 °F 93% 30.01 in 10.0 mi SSW 5.8 mph - N/A   Scattered Clouds
6:58 AM 75.6 °F - 73.4 °F 93% 30.01 in 10.0 mi SSW 8.1 mph - N/A   Clear
7:48 AM 77.0 °F - 73.4 °F 89% 29.99 in 10.0 mi SSW 8.1 mph - N/A   Mostly Cloudy
7:58 AM 77.4 °F - 73.8 °F 89% 30.01 in 10.0 mi SW 10.4 mph - N/A   Mostly Cloudy
8:43 AM 78.8 °F - 73.4 °F 83% 30.01 in 10.0 mi SW 10.4 mph - N/A   Mostly Cloudy
8:58 AM 79.2 °F - 73.9 °F 84% 30.03 in 10.0 mi WSW 10.4 mph - N/A   Mostly Cloudy
9:29 AM 78.8 °F - 75.2 °F 89% 30.01 in 10.0 mi SW 8.1 mph - N/A   Light Drizzle
9:58 AM 77.9 °F - 75.2 °F 91% 30.03 in 10.0 mi SW 9.2 mph - 0.02 in Rain Light Rain
12:55 PM 82.4 °F 88.2 °F 73.4 °F 74% 29.99 in 10.0 mi South 9.2 mph - N/A   Scattered Clouds
1:55 PM 84.2 °F 92.3 °F 75.2 °F 74% 29.97 in 10.0 mi SSW 8.1 mph - N/A   Scattered Clouds
2:55 PM 87.8 °F 93.8 °F 71.6 °F 58% 29.96 in 10.0 mi SW 10.4 mph - N/A   Scattered Clouds
3:55 PM 87.8 °F 92.6 °F 69.8 °F 55% 29.89 in 10.0 mi SSW 15.0 mph - N/A   Partly Cloudy
4:55 PM 89.6 °F 94.7 °F 69.8 °F 52% 29.88 in 10.0 mi SW 9.2 mph - N/A   Partly Cloudy
5:55 PM 86.2 °F 91.1 °F 70.5 °F 59% 29.91 in 10.0 mi Variable 3.5 mph - N/A   Mostly Cloudy
6:58 PM 85.1 °F 93.7 °F 75.0 °F 72% 29.91 in 10.0 mi SSW 9.2 mph - N/A   Mostly Cloudy
7:38 PM 84.2 °F 90.9 °F 73.4 °F 70% 29.91 in 10.0 mi South 9.2 mph - N/A Thunderstorm Thunderstorm
7:40 PM 84.2 °F 90.9 °F 73.4 °F 70% 29.91 in 10.0 mi SSW 16.1 mph - N/A   Mostly Cloudy
7:41 PM 84.2 °F 90.9 °F 73.4 °F 70% 29.91 in 10.0 mi SSW 21.9 mph 32.2 mph N/A Thunderstorm Thunderstorm
7:58 PM 80.4 °F 83.5 °F 69.6 °F 69% 29.95 in 10.0 mi SSW 23.0 mph 36.8 mph N/A Thunderstorm Thunderstorm
8:04 PM 78.8 °F - 69.8 °F 74% 29.93 in 10.0 mi SSW 20.7 mph 29.9 mph N/A Thunderstorm Overcast
8:09 PM 77.0 °F - 69.8 °F 78% 29.94 in 10.0 mi SW 17.3 mph 29.9 mph N/A Rain , Thunderstorm Light Rain
8:25 PM 75.2 °F - 69.8 °F 83% 29.94 in 10.0 mi SW 17.3 mph - N/A Thunderstorm Mostly Cloudy
8:26 PM 75.2 °F - 69.8 °F 83% 29.94 in 10.0 mi SW 16.1 mph - N/A Rain , Thunderstorm Light Rain
8:58 PM 74.7 °F - 71.1 °F 88% 29.96 in 10.0 mi SSW 8.1 mph - 0.00 in Rain Light Rain
9:14 PM 75.2 °F - 71.6 °F 89% 29.93 in 10.0 mi South 8.1 mph - N/A   Mostly Cloudy
9:58 PM 74.5 °F - 70.3 °F 87% 29.94 in 10.0 mi South 9.2 mph - 0.01 in   Scattered Clouds
10:58 PM 73.4 °F - 70.0 °F 89% 29.91 in 10.0 mi South 8.1 mph - N/A   Clear
11:58 PM 73.2 °F - 70.5 °F 91% 29.89 in 10.0 mi South 10.4 mph - N/A   Mostly Cloudy